Weather in Shamraivka

Ukraine / Kyiv Region     49°46′20″N   29°49′58″E
В апреле 2022 года жителям России запретили посещать сайт meteo.paraplan.net по решению Генеральной прокуратуры. Аудитория сайта уменьшилась в 10 раз. Владельцы сайта не видят смысла в поддержке погодного сервера в таких условиях. Сайт будет закрыт в октябре.
temp.,
°C
wind,
m/s
gust,
m/s
humid.,
%
clouds,
%
prec.,
mm/h
press.,
hPa
HPBL,
m
29 september, thu
thu2900:00+9w33910 0.0 100639
03:00+8sw2290100 0.0 100712
06:00+8sse3390100 0.0 100831
09:00+11sse3781100 0.0 1008201
12:00+15sse585998 0.0 1008481
15:00+19sse685491 0.0 10071043
18:00+18sse4773100 0.0 1007163
21:00+14se3990100 0.1 1007159
30 september, fri
fri3000:00+14s41091100 0.8 1008246
03:00+14sse1298100 2.6 100948
06:00+13sw22952 0.1 101023
09:00+15wnw228532 0.1 1012145
12:00+20wnw236441 0.0 1013690
15:00+21wnw335595 0.0 10131046
18:00+19n2269100 0.0 101413
21:00+15ese118324 0.0 101611
1 october, sat
sat100:00+15s2283100 0.0 101622
03:00+14ssw3583100 0.0 101669
06:00+14ssw3585100 0.0 101680
09:00+16sw3774100 0.0 1016196
12:00+22sw5953100 0.0 1015697
15:00+23wsw584863 0.0 10141647
18:00+18nw487986 0.6 1014239
21:00+14nne229423 1.4 101426
2 october, sun
sun200:00+13ene239699 0.7 101351
03:00+13e3696100 0.8 1011128
06:00+13e3697100 0.5 1009157
09:00+14e3792100 1.0 1009302
12:00+17ese2485100 0.3 1007253
15:00+17w1281100 2.3 1006393
18:00+11nnw91493100 0.9 1008547
21:00+11nnw91590100 0.9 1009815
3 october, mon
mon300:00+10nw81589100 0.0 1009883
03:00+10nw8148699 0.0 1009769
06:00+10nw91691100 1.4 10041124
09:00+10nw91588100 1.8 1004973
12:00+12wnw101677100 0.1 10031441
15:00+13wnw9146654 0.4 10041558
18:00+11wnw9147899 0.3 10051024
21:00+9w81379100 0.4 10061254